When you browse on this site, cookies collect data to enhance your experience and personalize the content and advertising you see.
Visit our Privacy Policy to learn more. By continuing to use the site, you agree to this use of cookies and data.
  • Em Portugal
  • Lista de países
  • Para 7 dias
  • Temperatura da água
  • Mapas de satélite
  • Mapa do tempo
  • Widgets de tempo
  • user-avatar
    Iniciar Sessão

    Previsão horária em Prutz

    Hoje, 16 Dezembro, Domingo

    Tempo Temperatura Precipitação Vento Pressão Humidade
    00:00 -10°C° 0 mm 2 m/s 629 mmHg 51%
    01:00 -8°C° 0 mm 2 m/s 629 mmHg 48%
    02:00 -7°C° 0.1 mm 2 m/s 629 mmHg 53%
    03:00 -7°C° 0.1 mm 2 m/s 629 mmHg 58%
    04:00 -6°C° 0.1 mm 2 m/s 629 mmHg 63%
    05:00 -6°C° 0.4 mm 2 m/s 629 mmHg 71%
    06:00 -5°C° 0.4 mm 2 m/s 629 mmHg 78%
    07:00 -5°C° 0.4 mm 2 m/s 629 mmHg 85%
    08:00 -4°C° 0.3 mm 2 m/s 629 mmHg 85%
    09:00 -3°C° 0.3 mm 2 m/s 629 mmHg 85%
    10:00 -2°C° 0.3 mm 2 m/s 629 mmHg 85%
    11:00 0°C° 0.1 mm 1 m/s 630 mmHg 85%
    12:00 +1°C° 0.1 mm 1 m/s 630 mmHg 86%
    13:00 +2°C° 0.1 mm 1 m/s 630 mmHg 86%
    14:00 +1°C° 0.2 mm 1 m/s 630 mmHg 88%
    15:00 +1°C° 0.2 mm 1 m/s 630 mmHg 90%
    16:00 0°C° 0.2 mm 1 m/s 629 mmHg 91%
    17:00 0°C° 0.3 mm 1 m/s 630 mmHg 92%
    18:00 -1°C° 0.3 mm 1 m/s 630 mmHg 92%
    19:00 -2°C° 0.3 mm 0 m/s 630 mmHg 93%
    20:00 -1°C° 0.4 mm 1 m/s 630 mmHg 93%
    21:00 -1°C° 0.4 mm 1 m/s 630 mmHg 94%
    22:00 -2°C° 0.4 mm 1 m/s 630 mmHg 94%
    23:00 -2°C° 0.2 mm 1 m/s 630 mmHg 94%

    Amanhã, 17 Dezembro, Segunda-feira

    Tempo Temperatura Precipitação Vento Pressão Humidade
    00:00 -2°C° 0.2 mm 1 m/s 630 mmHg 93%
    01:00 -2°C° 0.2 mm 1 m/s 630 mmHg 93%
    02:00 -3°C° 0 mm 1 m/s 630 mmHg 92%
    03:00 -3°C° 0 mm 1 m/s 630 mmHg 92%
    04:00 -3°C° 0 mm 1 m/s 630 mmHg 92%
    05:00 -4°C° 0 mm 1 m/s 630 mmHg 91%
    06:00 -4°C° 0 mm 1 m/s 630 mmHg 91%
    07:00 -4°C° 0 mm 1 m/s 630 mmHg 91%
    08:00 -4°C° 0 mm 1 m/s 631 mmHg 90%
    09:00 -3°C° 0 mm 1 m/s 632 mmHg 89%
    10:00 -2°C° 0 mm 1 m/s 633 mmHg 88%
    11:00 -3°C° 0 mm 2 m/s 633 mmHg 87%
    12:00 -3°C° 0 mm 2 m/s 633 mmHg 85%
    13:00 -2°C° 0 mm 2 m/s 634 mmHg 84%
    14:00 -3°C° 0 mm 2 m/s 634 mmHg 86%
    15:00 -3°C° 0 mm 2 m/s 634 mmHg 88%
    16:00 -4°C° 0 mm 2 m/s 634 mmHg 91%
    17:00 -5°C° 0 mm 2 m/s 635 mmHg 90%
    18:00 -5°C° 0 mm 2 m/s 635 mmHg 90%
    19:00 -4°C° 0 mm 1 m/s 635 mmHg 90%
    20:00 -4°C° 0 mm 1 m/s 636 mmHg 90%
    21:00 -6°C° 0 mm 1 m/s 636 mmHg 90%
    22:00 -6°C° 0 mm 1 m/s 636 mmHg 90%
    23:00 -7°C° 0 mm 1 m/s 636 mmHg 90%

    Depois de amanhã, 18 Dezembro, Terça-feira

    Tempo Temperatura Precipitação Vento Pressão Humidade
    00:00 -7°C° 0 mm 1 m/s 636 mmHg 90%
    01:00 -7°C° 0 mm 1 m/s 636 mmHg 90%
    02:00 -8°C° 0 mm 2 m/s 636 mmHg 85%
    03:00 -9°C° 0 mm 2 m/s 636 mmHg 81%
    04:00 -9°C° 0 mm 2 m/s 636 mmHg 76%
    05:00 -9°C° 0 mm 2 m/s 636 mmHg 70%
    06:00 -9°C° 0 mm 2 m/s 636 mmHg 64%
    07:00 -8°C° 0 mm 1 m/s 636 mmHg 58%
    08:00 -7°C° 0 mm 2 m/s 636 mmHg 58%
    09:00 -6°C° 0 mm 2 m/s 636 mmHg 59%
    10:00 -4°C° 0 mm 2 m/s 637 mmHg 60%
    11:00 -3°C° 0 mm 2 m/s 637 mmHg 63%
    12:00 -1°C° 0 mm 2 m/s 637 mmHg 66%
    13:00 +1°C° 0 mm 2 m/s 637 mmHg 69%
    14:00 -1°C° 0 mm 2 m/s 636 mmHg 69%
    15:00 -2°C° 0 mm 2 m/s 636 mmHg 68%
    16:00 -3°C° 0 mm 2 m/s 635 mmHg 68%
    17:00 -4°C° 0 mm 2 m/s 635 mmHg 65%
    18:00 -5°C° 0 mm 2 m/s 634 mmHg 62%
    19:00 -7°C° 0 mm 3 m/s 634 mmHg 60%
    20:00 -7°C° 0 mm 3 m/s 634 mmHg 57%
    21:00 -7°C° 0 mm 3 m/s 634 mmHg 55%
    22:00 -7°C° 0 mm 3 m/s 633 mmHg 53%
    23:00 -7°C° 0 mm 3 m/s 633 mmHg 51%

    19 Dezembro, Quarta-feira

    Tempo Temperatura Precipitação Vento Pressão Humidade
    00:00 -7°C° 0 mm 3 m/s 633 mmHg 50%
    01:00 -7°C° 0 mm 3 m/s 633 mmHg 49%
    02:00 -5°C° 0 mm 2 m/s 633 mmHg 48%
    03:00 -5°C° 0 mm 2 m/s 633 mmHg 48%
    04:00 -5°C° 0 mm 2 m/s 632 mmHg 47%
    05:00 -4°C° 0 mm 2 m/s 632 mmHg 48%
    06:00 -4°C° 0 mm 2 m/s 632 mmHg 48%
    07:00 -4°C° 0 mm 2 m/s 632 mmHg 49%
    08:00 -3°C° 0 mm 2 m/s 633 mmHg 52%
    09:00 -2°C° 0 mm 2 m/s 633 mmHg 55%
    10:00 -1°C° 0 mm 2 m/s 633 mmHg 59%
    11:00 +2°C° 0 mm 1 m/s 633 mmHg 62%
    12:00 +2°C° 0 mm 1 m/s 633 mmHg 66%
    13:00 +3°C° 0 mm 1 m/s 633 mmHg 70%
    14:00 +1°C° 0 mm 2 m/s 632 mmHg 71%
    15:00 -1°C° 0 mm 2 m/s 632 mmHg 72%
    16:00 -2°C° 0 mm 2 m/s 631 mmHg 74%
    17:00 -3°C° 0 mm 2 m/s 631 mmHg 75%
    18:00 -5°C° 0 mm 3 m/s 631 mmHg 77%
    19:00 -5°C° 0 mm 3 m/s 630 mmHg 78%
    20:00 -5°C° 0 mm 3 m/s 631 mmHg 80%
    21:00 -5°C° 0 mm 3 m/s 631 mmHg 82%
    22:00 -4°C° 0 mm 2 m/s 631 mmHg 83%
    23:00 -4°C° 0.1 mm 2 m/s 631 mmHg 85%

    20 Dezembro, Quinta-feira

    Tempo Temperatura Precipitação Vento Pressão Humidade
    00:00 -5°C° 0.1 mm 2 m/s 631 mmHg 86%
    01:00 -5°C° 0.1 mm 2 m/s 631 mmHg 87%
    02:00 -2°C° 0.5 mm 1 m/s 631 mmHg 90%
    03:00 -2°C° 0.5 mm 1 m/s 631 mmHg 92%
    04:00 -2°C° 0.5 mm 1 m/s 631 mmHg 94%
    05:00 -2°C° 0.6 mm 1 m/s 632 mmHg 94%
    06:00 -2°C° 0.6 mm 1 m/s 632 mmHg 94%
    07:00 -2°C° 0.6 mm 1 m/s 632 mmHg 95%
    08:00 -1°C° 0.6 mm 1 m/s 632 mmHg 95%
    09:00 -1°C° 0.6 mm 1 m/s 633 mmHg 94%
    10:00 -1°C° 0.6 mm 1 m/s 633 mmHg 94%
    11:00 0°C° 0.3 mm 1 m/s 633 mmHg 93%
    12:00 0°C° 0.3 mm 1 m/s 633 mmHg 92%
    13:00 -1°C° 0.3 mm 2 m/s 633 mmHg 92%
    14:00 -2°C° 0.2 mm 2 m/s 633 mmHg 92%
    15:00 -2°C° 0.2 mm 2 m/s 633 mmHg 93%
    16:00 -3°C° 0.2 mm 2 m/s 633 mmHg 94%
    17:00 -3°C° 0.1 mm 2 m/s 634 mmHg 94%
    18:00 -2°C° 0.1 mm 1 m/s 634 mmHg 95%
    19:00 -3°C° 0.1 mm 1 m/s 634 mmHg 95%
    20:00 -3°C° 0 mm 1 m/s 634 mmHg 95%
    21:00 -4°C° 0 mm 1 m/s 634 mmHg 94%
    22:00 -4°C° 0 mm 1 m/s 634 mmHg 94%
    23:00 -6°C° 0 mm 1 m/s 634 mmHg 93%

    21 Dezembro, Sexta-feira

    Tempo Temperatura Precipitação Vento Pressão Humidade
    00:00 -6°C° 0 mm 1 m/s 634 mmHg 92%
    01:00 -6°C° 0 mm 1 m/s 634 mmHg 91%
    02:00 -7°C° 0 mm 1 m/s 634 mmHg 89%
    03:00 -7°C° 0 mm 1 m/s 634 mmHg 87%
    04:00 -8°C° 0 mm 1 m/s 634 mmHg 84%
    05:00 -9°C° 0 mm 2 m/s 634 mmHg 80%
    06:00 -9°C° 0 mm 2 m/s 634 mmHg 76%
    07:00 -9°C° 0 mm 2 m/s 634 mmHg 72%
    08:00 -7°C° 0 mm 2 m/s 634 mmHg 70%
    09:00 -6°C° 0 mm 2 m/s 635 mmHg 68%
    10:00 -4°C° 0 mm 2 m/s 635 mmHg 66%
    11:00 -3°C° 0 mm 2 m/s 635 mmHg 68%
    12:00 -1°C° 0 mm 2 m/s 635 mmHg 70%
    13:00 +1°C° 0 mm 2 m/s 635 mmHg 71%
    14:00 +1°C° 0 mm 2 m/s 634 mmHg 72%
    15:00 -1°C° 0 mm 2 m/s 634 mmHg 74%
    16:00 -1°C° 0 mm 2 m/s 634 mmHg 75%
    17:00 -1°C° 0.3 mm 2 m/s 634 mmHg 77%
    18:00 -1°C° 0.3 mm 2 m/s 634 mmHg 78%
    19:00 -1°C° 0.3 mm 2 m/s 634 mmHg 80%
    20:00 -1°C° 0.5 mm 2 m/s 634 mmHg 81%
    21:00 -1°C° 0.5 mm 2 m/s 635 mmHg 83%
    22:00 -1°C° 0.5 mm 2 m/s 635 mmHg 84%
    23:00 -1°C° 0.1 mm 2 m/s 635 mmHg 86%
    Mostrar mais